Regional Weather Roundup
Issued by NWS

Home | Current Version | Previous Version | Text Only | Print | Product List | Glossary On
Versions: 1 2 3 4 5 6 7 8 9 10 11 12 13 14 15 16 17 18 19 20 21 22 23 24 25 26 27 28 29 30 31 32 33 34 35 36 37 38 39 40 41 42 43 44 45 46 47 48 49 50
000
ASUS43 KLSX 020907
RWRMO

WEATHER SUMMARY FOR MISSOURI
NATIONAL WEATHER SERVICE SPRINGFIELD MO
400 AM CDT SAT AUG 02 2014

NOTE: "FAIR" INDICATES FEW OR NO CLOUDS BELOW 12,000 FEET WITH NO
       SIGNIFICANT WEATHER AND/OR OBSTRUCTIONS TO VISIBILITY.
       CURRENT SKY AND/OR WEATHER CONDITIONS ARE NOT AVAILABLE FOR
       CHILLICOTHE AND FARMINGTON.

MOZ001>031-035>038-043-044-053-054-021000-
...NORTHERN AND WESTERN MISSOURI...

CITY           SKY/WX    TMP DP  RH WIND       PRES   REMARKS
KANSAS CTY INT CLEAR     68  60  75 CALM      30.11R
KANSAS C DTWN  CLEAR     71  63  75 CALM      30.09S
LEE`S SUMMIT   CLEAR     69  60  73 SE5       30.11S
ST JOSEPH      CLEAR     61  59  93 CALM      30.11S
CHILLICOTHE      N/A     61  58  90 CALM      30.12R
KIRKSVILLE     FOG       56  55  97 SW3       30.13R VSB 1/2

$$
MOZ066>068-077>081-088>096-101>105-021000-
...SOUTHWEST MISSOURI...

CITY           SKY/WX    TMP DP  RH WIND       PRES   REMARKS
SPRINGFIELD    PTCLDY    67  62  84 CALM      30.10S
JOPLIN         PTCLDY    65  63  93 CALM      30.10R

$$
MOZ032>034-039>042-045>050-055>058-069>072-021000-
...CENTRAL MISSOURI...

CITY           SKY/WX    TMP DP  RH WIND       PRES   REMARKS
COLUMBIA       CLEAR     60  60 100 NE5       30.11S FOG
JEFFERSON CITY CLEAR     61  59  93 CALM      30.10R
ROLLA          CLEAR     63  60  90 E3        30.09R
SEDALIA        CLEAR     65  60  84 CALM      30.11S
WHITEMAN AFB   CLEAR     62  54  76 CALM      30.10S
OSAGE BEACH    CLEAR     61  57  88 CALM      30.09S

$$
MOZ051-052-059>065-021000-
...EAST CENTRAL MISSOURI...

CITY           SKY/WX    TMP DP  RH WIND       PRES   REMARKS
ST LOUIS INTL  PTCLDY    64  63  94 N3        30.10R FOG
SPIRIT OF STL  FOG       65  64  97 CALM      30.09R VSB<1/4
ST CHARLES     CLEAR     62  59  90 CALM      30.09S FOG

$$
MOZ072>076-082>087-097>100-106>115-021000-
...SOUTH CENTRAL AND SOUTHEAST MISSOURI...

CITY           SKY/WX    TMP DP  RH WIND       PRES   REMARKS
CAPE GIRARDEAU CLOUDY    67  64  90 CALM      30.06S
FARMINGTON     CLEAR     63  61  94 CALM      30.11S
POPLAR BLUFF   CLEAR     65  61  87 NW3       30.05S
WEST PLAINS    PTCLDY    62  59  90 CALM      30.10F

$$


USA.gov is the U.S. government's official web portal to all federal, state and local government web resources and services.